STSAT-3 (39422 NORAD) Tracking and Keplerian Element Data

This shows tracking and keplerian element data for the satellite.

Feedback or suggestion? Click here.




ElementValue
Catalog39422
NameSTSAT-3
Epoch Orbit27529
Epoch Day349.75106168
Epoch Year2018
RAAN37.4467
Inclination97.5844
Eccentricity0.0021862
Argument of Perigee218.5345
Mean Anonmoly141.4297
Mean Motion14.89676598
Decay Rate-1.51E-06
L11 39422U 13066G 18349.75106168 -.00000151 00000-0 -10149-4 0 9993
L22 39422 97.5844 37.4467 0021862 218.5345 141.4297 14.89676598275293

Live tracking and technical data element details for STSAT-3 (NORAD 39422). STSAT-3 can be tracked NOW for your location showing map with azimuth and elevation plus other details from your city location.

Track the satellite on the map from your city or location and see movement details for azimuth, elevation, latitude, longitude, range, height, and movement on the map or in text.







IsCatalogInMostPopularTable: catalog: 39422, numindb: 81
Update: records affected: 1



GetName: 39422 STSAT-3

Hit Count: updated at: Sun, 16 Dec 2018 04:43:10 GMT